Location: Miss�
(46.9484°N, 0.1922°W)
Time: 22:57:34
(UTC+00:00)

USA 234 - Pass Details

Date: 02 March 2021
Orbit: 1102 x 1105 km, 123.0° (Epoch: 18 April)

Event Time Altitude Azimuth Distance (km) Brightness Sun altitude
Exits shadow 20:24:24 36° 47° (NE) 1,673 4.0 -27.1°
Maximum altitude 20:27:20 78° 328° (NNW) 1,130 3.3 -27.6°
Drops below altitude 10° 20:33:52 10° 243° (WSW) 2,958 6.0 -28.6°
Sets 20:36:20 0° 242° (WSW) 3,914 6.7 -29.0°
